Starlink 30836

operational
NORAD ID: 58221 Int'l Des: 2023-170 Owner: SPXS Country: US Constellation: starlink
LEOCIRCULAR

About Starlink 30836

Description loading...

Live Position

Loading 3D Globe...

Upcoming Passes

Altitude History

Altitude vs Time

uPlot chart will show altitude changes over time

Two-Line Element Set

1 58221U 23170R 25351.52341472 -.00000055 00000-0 11011-4 0 9994
2 58221 43.0024 282.0369 0000865 271.4022 88.6721 15.02534567117920
Epoch: Dec 17, 2025 • Age: 21 hours

Current Status

Altitude 560.2 km
Velocity 7.59 km/s
Sub-Earth Point 30.24°N, 176.85°W
Launch Date Nov 4, 2023
Age 2.1 years
Type internet

Technical Details

Classification Payload
Mass 730.00 kg
Dry Mass 700.00 kg
Total Mass 730.00 kg
Length 0.30 m
Diameter 4.10 m
Span 29.00 m
Shape Box + pan
Manufacturer SPXS
Bus Type Starlink V2M
Phase Status In Orbit
Owner/State SPXS/US

Large Constellations

Loading constellations...